Regional Weather Roundup
Issued by NWS

Home | Current Version | Previous Version | Graphics & Text | Print | Product List | Glossary Off
Versions: 1 2 3 4 5 6 7 8 9 10 11 12 13 14 15 16 17 18 19 20 21 22 23 24 25 26 27 28 29 30 31 32 33 34 35 36 37 38 39 40 41 42 43 44 45 46 47 48 49 50

000
ASUS43 KLSX 290607
RWRMO

WEATHER SUMMARY FOR MISSOURI
NATIONAL WEATHER SERVICE SPRINGFIELD MO
1200 AM CST THU JAN 29 2015

NOTE: "FAIR" INDICATES FEW OR NO CLOUDS BELOW 12,000 FEET WITH NO
       SIGNIFICANT WEATHER AND/OR OBSTRUCTIONS TO VISIBILITY.
       CURRENT SKY AND/OR WEATHER CONDITIONS ARE NOT AVAILABLE FOR
       CHILLICOTHE AND FARMINGTON.

MOZ001>031-035>038-043-044-053-054-290700-
...NORTHERN AND WESTERN MISSOURI...

CITY           SKY/WX    TMP DP  RH WIND       PRES   REMARKS
KANSAS CTY INT PTCLDY    52  38  58 NW18G33   29.85R
6HR MIN TEMP:  52; 6HR MAX TEMP:  66;

KANSAS C DTWN  PTCLDY    55  37  50 NW14G24   29.84R
6HR MIN TEMP:  55; 6HR MAX TEMP:  70;

LEE`S SUMMIT   CLEAR     56  36  47 NW17G30   29.85R
6HR MIN TEMP:  55; 6HR MAX TEMP:  68;

ST JOSEPH      PTCLDY    48  38  68 NW20G25   29.88R
6HR MIN TEMP:  48; 6HR MAX TEMP:  65;

CHILLICOTHE      N/A     52  37  56 NW10G24   29.79R
6HR MIN TEMP:  51; 6HR MAX TEMP:  62;

KIRKSVILLE     CLEAR     51  38  60 W15G23    29.71R
6HR MIN TEMP:  43; 6HR MAX TEMP:  54;


$$
MOZ066>068-077>081-088>096-101>105-290700-
...SOUTHWEST MISSOURI...

CITY           SKY/WX    TMP DP  RH WIND       PRES   REMARKS
SPRINGFIELD    MOCLDY    57  41  55 SW14      29.86F
6HR MIN TEMP:  52; 6HR MAX TEMP:  63;

JOPLIN         CLOUDY    61  40  45 SW14      29.90R
6HR MIN TEMP:  60; 6HR MAX TEMP:  67;


$$
MOZ032>034-039>042-045>050-055>058-069>072-290700-
...CENTRAL MISSOURI...

CITY           SKY/WX    TMP DP  RH WIND       PRES   REMARKS
COLUMBIA       CLOUDY    54  39  57 S16       29.77S
6HR MIN TEMP:  50; 6HR MAX TEMP:  55;

JEFFERSON CITY CLOUDY    56  38  50 SW14G20   29.78F
6HR MIN TEMP:  53; 6HR MAX TEMP:  57;

ROLLA          CLOUDY    49  37  63 S16       29.80F
6HR MIN TEMP:  47; 6HR MAX TEMP:  50;

SEDALIA        PTCLDY    56  41  57 SW13      29.79R
6HR MIN TEMP:  56; 6HR MAX TEMP:  61;

WHITEMAN AFB   PTCLDY    57  39  51 W13       29.79R
WARRENSBURG    PTCLDY    55  36  47 W15G21    29.81R
OSAGE BEACH    CLOUDY    54  37  54 S7        29.81F

$$
MOZ051-052-059>065-290700-
...EAST CENTRAL MISSOURI...

CITY           SKY/WX    TMP DP  RH WIND       PRES   REMARKS
ST LOUIS INTL  CLOUDY    52  36  54 S16G23    29.80F
6HR MIN TEMP:  45; 6HR MAX TEMP:  52;

SPIRIT OF STL  CLOUDY    52  37  56 SW12G20   29.78F
6HR MIN TEMP:  47; 6HR MAX TEMP:  52;

ST CHARLES     CLOUDY    41  35  79 SE5       29.79F
6HR MIN TEMP:  40; 6HR MAX TEMP:  43;


$$
MOZ072>076-082>087-097>100-106>115-290700-
...SOUTH CENTRAL AND SOUTHEAST MISSOURI...

CITY           SKY/WX    TMP DP  RH WIND       PRES   REMARKS
CAPE GIRARDEAU CLOUDY    47  34  60 S9        29.97F
6HR MIN TEMP:  40; 6HR MAX TEMP:  47;

FARMINGTON     PTCLDY    48  36  61 SW17G29   29.90F
6HR MIN TEMP:  43; 6HR MAX TEMP:  48;

POPLAR BLUFF   PTCLDY    47  35  63 S7        29.95F
6HR MIN TEMP:  40; 6HR MAX TEMP:  48;

WEST PLAINS    MOCLDY    48  37  65 S8        29.91F
6HR MIN TEMP:  46; 6HR MAX TEMP:  49;


$$


USA.gov is the U.S. government's official web portal to all federal, state and local government web resources and services.